Location: Olda
(45.8833°N, 9.5500°E)
Time: 19:04:18
(UTC+00:00)

Okean 3 - Pass Details

Date: 03 March 2021
Orbit: 577 x 600 km, 82.5° (Epoch: 13 April)

Event Time Altitude Azimuth Distance (km) Brightness Sun altitude
Rises 18:36:27 0° 359° (N) 2,832 7.1 -15.6°
Reaches altitude 10° 18:38:50 10° 9° (N) 1,930 6.1 -16.0°
Maximum altitude 18:42:42 33° 74° (ENE) 1,016 4.2 -16.7°
Enters shadow 18:43:03 32° 85° (E) 1,027 4.1 -16.7°
